sat.trackr.live / text

‹ back to catalog

STARLINK-11416 [DTC]

NORAD 62594 · 2025-008H

PAYLOAD ACTIVE UNKNOWN

§ Identity

Operator
Country
US
Launch date
2025-01-13
Launch site
AFETR
Launch vehicle
Mass (kg)
RCS (m²)

Purposes: comms

External: N2YO · Heavens-Above · Gunter

§ Orbital elements

Epoch: 2026-07-07T05:15:47.007648Z

Period
88.52 min
Inclination
42.9747°
Eccentricity
0.0013325
Mean motion
16.26790110 rev/d
Perigee alt
192.4 km
Apogee alt
209.9 km
Semi-major
6,579.3 km
B*
3.3308e-3
RAAN
113.8100°
Arg perigee
215.0945°
Mean anomaly
144.9066°
Rev number
8,604

§ Raw data

STARLINK-11416 [DTC]1 62594U 25008H   26188.21929407  .12173371  88691-5  33308-2 0  99912 62594  42.9747 113.8100 0013325 215.0945 144.9066 16.26790110 86046

JSON: /api/v1/satellites/62594 · /tle

For live sub-satellite position, see the globe view (requires WebGL).

§ Visibility from observer

Set your observer location to see the next 7 days of passes ≥ 10°. The values pass through the URL so the page stays shareable.

No JS? Fill the form by hand. The geolocation button needs JavaScript.